Regional Weather Roundup
Issued by NWS Albany, NY

Home | Current Version | Previous Version | Graphics & Text | Print | Product List | Glossary Off
Versions: 1 2 3 4 5 6 7 8 9 10 11 12 13 14 15 16 17 18 19 20 21 22 23 24 25 26 27 28 29

000
ASUS41 KALY 300710
RWRALY

NEW YORK STATE HOURLY WEATHER ROUNDUP
NATIONAL WEATHER SERVICE ALBANY NY
300 AM EDT SAT APR 30 2016

NOTE: "FAIR" INDICATES FEW OR NO CLOUDS BELOW 12,000 FEET WITH NO
SIGNIFICANT WEATHER AND/OR NO OBSTRUCTIONS TO VISIBILITY.

NYZ032-033-038>043-046>054-057>066-NYZ062>081-082-084-300800-
EAST


CITY           SKY/WX    TMP DP  RH WIND       PRES   REMARKS
ALBANY         CLOUDY    47  38  71 SE3       30.15S
GLENS FALLS    CLOUDY    45  26  47 CALM      30.15S
POUGHKEEPSIE   CLOUDY    46  42  86 E3        30.16F
NEWBURGH       MOCLDY    43  43 100 CALM      30.18S FOG
MONTGOMERY     CLOUDY    44  41  89 CALM      30.15F
WHITE PLAINS   MOCLDY    44  40  85 N3        30.14F
ISLIP          CLOUDY    45  38  76 NE8       30.14F
NEW YORK CITY  CLOUDY    48  38  68 NE10      30.15F
CENTRAL PARK   CLOUDY    48  38  68 NE7       30.17F
$$

NYZ005>009-017-018-044>046-055-056-300800-
CENTRAL


CITY           SKY/WX    TMP DP  RH WIND       PRES   REMARKS
FULTON         CLOUDY    44  42  93 CALM      30.14S
SYRACUSE       MOCLDY    44  42  93 W5        30.14R
ROME           CLEAR     38  37  97 NE3       30.14S
ELMIRA         CLOUDY    44  41  89 SE3       30.14R FOG
BINGHAMTON     CLOUDY    39  38  96 CALM      30.12R
MONTICELLO     CLOUDY    37  37 100 CALM      30.14F
$$

NYZ026>034-041>043-087-300800-
NORTH


CITY           SKY/WX    TMP DP  RH WIND       PRES   REMARKS
WATERTOWN      CLEAR     35  26  69 CALM      30.14S
FORT DRUM      NOT AVBL
MASSENA        CLEAR     29  24  82 CALM      30.19S
SARANAC LAKE   CLEAR     27  18  69 N3        30.11F
PLATTSBURGH    CLEAR     39  15  37 W7        30.18R WCI  34
$$

NYZ001>004-010>016-019>021-085-300800-
WEST


CITY           SKY/WX    TMP DP  RH WIND       PRES   REMARKS
NIAGARA FALLS  CLOUDY    42  35  76 CALM      30.16R
BUFFALO        CLOUDY    45  35  68 NE3       30.15S
DUNKIRK        CLEAR     37  37 100 S3        30.14F
JAMESTOWN      CLOUDY    41  37  87 E5        30.12R
WELLSVILLE     FOG       39  38  96 NE3       30.12S VSB 1/4
ROCHESTER      CLOUDY    45  36  70 CALM      30.17S
PENN YAN       CLOUDY    44  42  93 CALM      30.15R
$$

             KEY
       WCI = WIND CHILL INDEX
       VSB = VISIBILITY
       HX  = HEAT INDEX
$$




USA.gov is the U.S. government's official web portal to all federal, state and local government web resources and services.